| time (UTC) | temp C | wind direction | speed KPH | gust KPH | rain 1hr cm | rain 24hr cm | rain mn cm | humidity % | barometer mb |
| 20260506103032 | 6 | 344 | 0.0 | 0.0 | 0.00 | 0.00 | 0.00 | 80 | 1014.1 |
| 20260506101527 | 6 | 314 | 0.0 | 0.0 | 0.00 | 0.00 | 0.00 | 79 | 1013.9 |
| 20260506100032 | 7 | 314 | 0.0 | 0.0 | 0.00 | 0.00 | 0.00 | 79 | 1014.1 |
| 20260506094523 | 7 | 314 | 0.0 | 0.0 | 0.00 | 0.00 | 0.00 | 77 | 1013.5 |
| 20260506093020 | 8 | 314 | 0.0 | 0.0 | 0.00 | 0.00 | 0.00 | 75 | 1013.4 |
| 20260506091519 | 8 | 314 | 0.0 | 0.0 | 0.00 | 0.00 | 0.00 | 75 | 1013.3 |
| 20260506090017 | 8 | 314 | 0.0 | 0.0 | 0.00 | 0.00 | 0.00 | 75 | 1013.6 |
| 20260506084517 | 8 | 299 | 1.6 | 0.0 | 0.00 | 0.00 | 0.00 | 75 | 1013.6 |
| 20260506083017 | 8 | 264 | 0.0 | 0.0 | 0.00 | 0.00 | 0.00 | 75 | 1013.5 |
| 20260506081520 | 8 | 264 | 0.0 | 0.0 | 0.00 | 0.00 | 0.00 | 74 | 1013.7 |
| 20260506073010 | 9 | 273 | 1.6 | 0.0 | 0.00 | 0.00 | 0.00 | 72 | 1014.1 |
| 20260506071502 | 10 | 350 | 0.0 | 0.0 | 0.00 | 0.00 | 0.00 | 68 | 1013.4 |
| 20260506070126 | 11 | 275 | 1.6 | 0.0 | 0.00 | 0.00 | 0.00 | 67 | 1013.4 |
| 20260506061558 | 12 | 255 | 4.8 | 0.0 | 0.00 | 0.00 | 0.91 | 63 | 1013.1 |
| 20260506050104 | 11 | 248 | 0.0 | 0.0 | 0.00 | 0.00 | 0.91 | 70 | 1013.2 |
| 20260506044557 | 11 | 245 | 0.0 | 0.0 | 0.00 | 0.00 | 0.91 | 67 | 1013.2 |
| 20260506043057 | 11 | 245 | 0.0 | 0.0 | 0.00 | 0.00 | 0.91 | 66 | 1012.7 |
| 20260506041602 | 11 | 215 | 0.0 | 0.0 | 0.00 | 0.00 | 0.91 | 64 | 1012.3 |
| 20260506040053 | 12 | 215 | 0.0 | 0.0 | 0.00 | 0.00 | 0.91 | 63 | 1012.6 |
| 20260506034559 | 12 | 199 | 0.0 | 0.0 | 0.00 | 0.00 | 0.91 | 62 | 1012.0 |
| 20260506033052 | 13 | 191 | 0.0 | 0.0 | 0.00 | 0.00 | 0.91 | 59 | 1011.5 |
| 20260506031552 | 13 | 30 | 0.0 | 0.0 | 0.00 | 0.00 | 0.91 | 58 | 1011.0 |
| 20260506030053 | 14 | 30 | 0.0 | 0.0 | 0.00 | 0.00 | 0.91 | 54 | 1011.1 |
| 20260506024559 | 14 | 355 | 0.0 | 0.0 | 0.00 | 0.00 | 0.91 | 53 | 1011.0 |
| 20260506023052 | 14 | 9 | 1.6 | 0.0 | 0.00 | 0.00 | 0.91 | 54 | 1010.9 |
| 20260506021550 | 15 | 244 | 0.0 | 0.0 | 0.00 | 0.00 | 0.91 | 56 | 1010.2 |
| 20260506020105 | 15 | 244 | 0.0 | 0.0 | 0.00 | 0.00 | 0.91 | 54 | 1009.9 |
| 20260506014606 | 16 | 248 | 3.2 | 0.0 | 0.00 | 0.00 | 0.91 | 49 | 1009.9 |
| 20260506013048 | 16 | 248 | 3.2 | 0.0 | 0.00 | 0.00 | 0.91 | 47 | 1009.6 |
| 20260506011610 | 18 | 247 | 3.2 | 0.0 | 0.00 | 0.00 | 0.91 | 45 | 1009.2 |
| 20260506010048 | 21 | 242 | 1.6 | 0.0 | 0.00 | 0.00 | 0.91 | 38 | 1008.1 |
| 20260506004600 | 21 | 170 | 1.6 | 0.0 | 0.00 | 0.00 | 0.91 | 38 | 1008.2 |
| 20260506003045 | 21 | 161 | 1.6 | 0.0 | 0.00 | 0.00 | 0.91 | 38 | 1008.4 |
| 20260506001545 | 21 | 172 | 1.6 | 0.0 | 0.00 | 0.00 | 0.91 | 37 | 1008.3 |
| 20260506000110 | 21 | 250 | 0.0 | 0.0 | 0.00 | 0.00 | 0.91 | 38 | 1008.2 |
| 20260505234547 | 21 | 239 | 1.6 | 0.0 | 0.00 | 0.00 | 0.91 | 37 | 1008.8 |
| 20260505233040 | 21 | 195 | 1.6 | 0.0 | 0.00 | 0.00 | 0.91 | 39 | 1008.7 |
| 20260505231537 | 21 | 150 | 1.6 | 0.0 | 0.00 | 0.00 | 0.91 | 39 | 1008.9 |
| 20260505230054 | 20 | 79 | 1.6 | 0.0 | 0.00 | 0.00 | 0.91 | 40 | 1009.0 |
| 20260505224539 | 20 | 153 | 0.0 | 0.0 | 0.00 | 0.00 | 0.91 | 43 | 1009.4 |
| 20260505223032 | 20 | 142 | 1.6 | 0.0 | 0.00 | 0.00 | 0.91 | 43 | 1009.6 |
| 20260505221529 | 20 | 140 | 1.6 | 0.0 | 0.00 | 0.00 | 0.91 | 44 | 1009.7 |
| 20260505220025 | 18 | 176 | 0.0 | 0.0 | 0.00 | 0.00 | 0.91 | 46 | 1010.1 |
| 20260505214523 | 18 | 180 | 1.6 | 0.0 | 0.00 | 0.00 | 0.91 | 48 | 1010.6 |
| 20260505213024 | 17 | 157 | 1.6 | 0.0 | 0.00 | 0.00 | 0.91 | 52 | 1011.1 |
| 20260505211526 | 17 | 263 | 1.6 | 0.0 | 0.00 | 0.00 | 0.91 | 53 | 1011.4 |
| 20260505210017 | 17 | 201 | 1.6 | 0.0 | 0.00 | 0.00 | 0.91 | 54 | 1011.2 |
| 20260505204513 | 16 | 261 | 1.6 | 0.0 | 0.00 | 0.00 | 0.91 | 57 | 1011.6 |
| 20260505203010 | 15 | 132 | 1.6 | 0.0 | 0.00 | 0.00 | 0.91 | 59 | 1011.9 |
| 20260505201505 | 14 | 177 | 1.6 | 0.0 | 0.00 | 0.00 | 0.91 | 62 | 1012.6 |
| 20260505200003 | 13 | 182 | 1.6 | 0.0 | 0.00 | 0.00 | 0.91 | 60 | 1012.9 |
| 20260505194619 | 13 | 184 | 1.6 | 0.0 | 0.00 | 0.00 | 0.91 | 63 | 1012.8 |
| 20260505193105 | 12 | 150 | 1.6 | 0.0 | 0.00 | 0.00 | 0.91 | 64 | 1013.2 |
| 20260505191607 | 12 | 177 | 1.6 | 0.0 | 0.00 | 0.00 | 0.91 | 65 | 1013.1 |
| 20260505190055 | 12 | 206 | 1.6 | 0.0 | 0.00 | 0.00 | 0.91 | 66 | 1013.1 |
| 20260505184553 | 12 | 202 | 1.6 | 0.0 | 0.00 | 0.00 | 0.91 | 68 | 1013.4 |
| 20260505183053 | 11 | 246 | 1.6 | 0.0 | 0.00 | 0.00 | 0.91 | 73 | 1013.5 |
| 20260505181547 | 10 | 230 | 1.6 | 0.0 | 0.00 | 0.00 | 0.91 | 74 | 1013.6 |
| 20260505180048 | 10 | 178 | 1.6 | 0.0 | 0.00 | 0.00 | 0.91 | 76 | 1013.6 |
| 20260505174542 | 9 | 159 | 0.0 | 0.0 | 0.00 | 0.00 | 0.91 | 76 | 1013.3 |
| 20260505173039 | 9 | 91 | 0.0 | 0.0 | 0.00 | 0.00 | 0.91 | 78 | 1013.2 |
| 20260505171538 | 8 | 335 | 0.0 | 0.0 | 0.00 | 0.00 | 0.91 | 80 | 1013.2 |
| 20260505170035 | 8 | 335 | 0.0 | 0.0 | 0.00 | 0.00 | 0.91 | 79 | 1013.2 |
| 20260505164531 | 8 | 74 | 0.0 | 0.0 | 0.00 | 0.00 | 0.91 | 81 | 1013.4 |
| 20260505163029 | 7 | 56 | 1.6 | 0.0 | 0.00 | 0.00 | 0.91 | 83 | 1013.3 |
| 20260505161527 | 7 | 73 | 0.0 | 0.0 | 0.00 | 0.00 | 0.91 | 84 | 1013.0 |
| 20260505153023 | 6 | 302 | 0.0 | 0.0 | 0.00 | 0.00 | 0.91 | 84 | 1013.1 |
| 20260505151521 | 6 | 238 | 0.0 | 0.0 | 0.00 | 0.00 | 0.91 | 85 | 1013.1 |
| 20260505124517 | 6 | 292 | 0.0 | 0.0 | 0.00 | 0.00 | 0.91 | 87 | 1010.2 |
| 20260505123013 | 6 | 292 | 0.0 | 0.0 | 0.00 | 0.00 | 0.91 | 86 | 1010.2 |
| 20260505121525 | 6 | 292 | 0.0 | 0.0 | 0.00 | 0.00 | 0.91 | 87 | 1010.1 |
| 20260505120012 | 6 | 292 | 0.0 | 0.0 | 0.00 | 0.00 | 0.91 | 87 | 1009.8 |
| 20260505114511 | 6 | 292 | 0.0 | 0.0 | 0.00 | 0.00 | 0.91 | 87 | 1009.7 |
| 20260505113011 | 6 | 292 | 0.0 | 0.0 | 0.00 | 0.00 | 0.91 | 87 | 1009.8 |
| 20260505111509 | 6 | 292 | 0.0 | 0.0 | 0.00 | 0.00 | 0.91 | 87 | 1009.8 |